Regional Weather Roundup
Issued by NWS Jackson, KY

Home | Current Version | Previous Version | Text Only | Print | Product List | Glossary Off
Versions: 1 2 3 4 5 6 7 8 9 10 11 12 13 14 15 16 17 18 19 20 21 22 23 24 25 26 27

000
ASUS43 KJKL 250810
RWRJKL

EAST KENTUCKY HOURLY WEATHER ROUNDUP
NATIONAL WEATHER SERVICE JACKSON KY
400 AM EDT TUE JUL 25 2017

NOTE: "FAIR" INDICATES FEW OR NO CLOUDS BELOW 12,000 FEET WITH
NO SIGNIFICANT WEATHER AND/OR OBSTRUCTIONS TO VISIBILITY.

* THESE REPORTS ARE NOT UNDER NWS QUALITY CONTROL AND MAY NOT
  REPORT WEATHER SUCH AS PRECIPITATION AND FOG.

KYZ079-080-083-085-087-088-110-112-115-119-120-250900
...EASTERN KENTUCKY...

CITY           SKY/WX    TMP DP  RH WIND       PRES   REMARKS
JACKSON        CLEAR     67  65  93 CALM      30.09R
LONDON         CLEAR     69  67  93 CALM      30.07S
SOMERSET*      PTCLDY    70  70 100 CALM      30.08R FOG
MONTICELLO*    MOCLDY    71  71 100 N10       30.08R FOG
WILLIAMSBURG*  PTSUNNY   70  70 100 CALM      30.07S
MIDDLESBORO*   CLEAR     68  68 100 CALM      30.09R
PIKE CO APT*   CLOUDY    67  67 100 N8        30.10R
BIG SANDY APT* SUNNY     66  66 100 NE6       30.10R
MOREHEAD APT*  CLOUDY    66  61  82 NE5G12    30.12R
$$

KYZ035-036-041-042-044-050-067-078-099-250900
...CENTRAL KENTUCKY...

CITY           SKY/WX    TMP DP  RH WIND       PRES   REMARKS
MT STERLING*   PTCLDY    66  63  88 E6        30.12R
FLEMING/MASON* MOCLDY    64  60  86 NE8       30.12S
DANVILLE*      PTCLDY    68  66  94 NE3       30.09R
LEXINGTON      PTCLDY    68  62  81 NE9       30.09R
FRANKFORT      PTCLDY    70  61  73 NE7       30.08R
LOUISVILLE     PTCLDY    73  64  73 NE8       30.07R
LEBANON*         N/A     72  68  88 N3        30.08R
GLASGOW*       CLEAR     73  73  99 CALM      30.04R
BOWLING GREEN  CLEAR     76  72  87 CALM      30.03S
$$

KYZ091>093-OHZ055-061-077-WVZ005-015-034-035-042-250900
...SOUTHERN OHIO/WEST VIRGINIA...

CITY           SKY/WX    TMP DP  RH WIND       PRES   REMARKS
COVINGTON      CLEAR     66  60  81 E8        30.11S
COLUMBUS       CLEAR     59  59 100 N3        30.11F
DAYTON         CLEAR     59  57  93 NE3       30.14F
WILMINGTON     CLEAR     58  58 100 NE3       30.12F
HUNTINGTON     MOCLDY    67  60  78 NE7       30.10R
CHARLESTON     PTCLDY    67  60  78 N3        30.10R
PINEVILLE*     FOG       68  67  96 MISG      30.15R VSB 1/4
BECKLEY        CLOUDY    65  63  93 N5        30.13S
BLUEFIELD      CLOUDY    66  64  93 VRB5      30.15S
LOGAN CO APT*  CLOUDY    68  66  94 CALM      30.11S
$$

VAZ002-007-008-TNZ017-027-036-066-071-250900
...SOUTHWEST VIRGINIA/EAST TENNESSEE...

CITY           SKY/WX    TMP DP  RH WIND       PRES   REMARKS
WISE*          CLEAR     66  66 100 CALM      30.16R
JONESVILLE*      N/A     68  66  94 CALM      30.11R
ABINGDON*      PTCLDY    69  68  97 CALM      30.11S
BRISTOL        PTCLDY    69  68  96 CALM      30.08R
MORRISTOWN*    SUNNY     70  68  94 CALM      30.06S
SEVIERVILLE*   SUNNY     70  68  94 CALM      30.05S
KNOXVILLE      CLEAR     73  69  87 W3        30.05R
LAFOLLETTE*      N/A     68  68 100 CALM      30.10R FOG
OAK RIDGE      CLEAR     71  68  90 CALM      30.06S
CROSSVILLE     CLEAR     66  65  96 CALM      30.11R
NASHVILLE      PTCLDY    78  74  87 CALM      30.03S
$$

...KEY TO REMARKS...
VSB - VISIBILITY IN MILES
WCI - WIND CHILL INDEX
HX  - HEAT INDEX

$$




USA.gov is the U.S. government's official web portal to all federal, state and local government web resources and services.